TWNKLBDS
8 AUCTIONS | Jul 18, 2019 20:31:35
2018 Hyundai i10 (Black)
Highest bidder: Bidder 1
Item Condition: New
Seller location: United States
Ends within:

closed

60 seconds will be added to the timer if a bid is received within 60 seconds before timer ends.
# of bids: 375 (Hide history)
USD Value: US$11500 (for reference only)
Current Bid: 10,001,003 YEM
Shipping fee: Pick up only
This auction is closed
Meet the seller
  • Feedback received 133 times
  • Positive feedback: (92%)
  • Member since 07/14/2018
View active auctions

Report this item

Item description

+++ CAR IS LOCATED IN GERMANY +++ PICK-UP ONLY +++
If you are winning this auction and you cannot travel to Germany to pick up the car, you need to organize and pay for transport. Any additional costs for transportation, including fees, customs, taxes, and other costs need to be paid by you directly. The auction covers the price to be paid for the car as described only.

The Hyundai i10 breaks the conventions of its class. It’s bold, roomy, fun to drive, impressively quipped and comes with superior levels of connectivity.

Luxurious interior with a touch of class. Every part of the i10 exudes quality, from the fine detailing to the polished surfaces and tactile materials.

 

Technical details:

Gear: 5-speed manual

Displacement (cc): 998

Max Power (PS/kW): 67 / 49 @ 5,500 rpm (PS/kW)

Top Speed: 155 km/h

Tyre: 175/65 R14

Emission Standard: Euro 6

 

 

Vehicle equipment:

- 6 Airbags (Front, Front Side & Curtain Airbags)

- Anti-lock Brake System (ABS) with Brake Assist System (BAS)

- Electronic Stability Programme (ESP)

- Immobilizer

- Tyre Pressure Monitoring System (TPMS)

- Bumpers - Body Coloured

- Exterior Door Handles and Door Mirrors – Black

- Rear Spoiler with Integrated Brake Light

- Tinted Windows all around
- Trip Computer

- Radio - Stereo, RDS with MP3 Compatibility

- USB and Aux Connections – Front

- Speakers - 2 Front

- Air Conditioning – Manual

- Central Locking System

- Rear Seats - Split Folding (60/40)

- 12V Power Outlet in Front Console

- Black Interior

- 14" Steel Wheels

 

The vehicle is equipped with floor mats, safety set, first-aid kit, warning triangle, high-visibility vest, Euro-badge.

Important: The initial registration was on October 30, 2017. The vehicle has a mileage of 8,983 kilometers. It was a demonstration car from the dealership and was never sold before.

The car is located in GERMANY.

The winner of the auction has to organize the transport of the vehicle at their own expense.

Of course, the car can also be picked up personally in Germany.

Additional Information

Country: Las Vegas United States (89128)
Shipping conditions: Pick up only,
Shipping countries & terms:  Winner responsible for any taxes, licence, fees, and transportation or pickup of vehicle.

Payment methods: PernumPay
Starting Bid: 1 YEM

Auction started: 2018-10-29 14:59
Auction ends: 2018-12-04 02:58
Auction ID: 1059

Item category: All > Automotive & Vehicles

Bids history

Bidder Bid Time
Bidder 1 10,001,003 YEM 03 December 2018 - 05:18:03
Bidder 2 9,999,999 YEM 03 December 2018 - 05:18:03
Bidder 1 9,979,999 YEM 03 December 2018 - 05:17:19
Bidder 2 9,969,999 YEM 03 December 2018 - 05:17:19
Bidder 1 9,959,999 YEM 03 December 2018 - 05:16:39
Bidder 2 9,949,999 YEM 03 December 2018 - 05:16:39
Bidder 1 9,922,500 YEM 03 December 2018 - 05:16:19
Bidder 2 9,912,500 YEM 03 December 2018 - 05:16:19
Bidder 1 9,902,500 YEM 03 December 2018 - 05:15:57
Bidder 2 9,892,500 YEM 03 December 2018 - 05:15:57
Bidder 1 9,872,500 YEM 03 December 2018 - 05:15:42
Bidder 2 9,862,500 YEM 03 December 2018 - 05:15:42
Bidder 1 9,852,500 YEM 03 December 2018 - 05:15:05
Bidder 2 9,842,500 YEM 03 December 2018 - 05:15:05
Bidder 1 9,832,500 YEM 30 November 2018 - 09:40:49
Bidder 2 9,822,500 YEM 30 November 2018 - 09:40:49
Bidder 1 9,760,000 YEM 30 November 2018 - 09:40:27
Bidder 2 9,750,000 YEM 30 November 2018 - 09:40:27
Bidder 1 9,660,000 YEM 30 November 2018 - 09:40:18
Bidder 2 9,650,000 YEM 30 November 2018 - 09:40:18
Bidder 1 9,560,000 YEM 30 November 2018 - 09:40:10
Bidder 2 9,550,000 YEM 30 November 2018 - 09:40:10
Bidder 1 9,510,001 YEM 30 November 2018 - 09:39:54
Bidder 2 9,500,001 YEM 30 November 2018 - 09:39:54
Bidder 1 9,460,000 YEM 30 November 2018 - 09:39:33
Bidder 2 9,450,000 YEM 30 November 2018 - 09:39:33
Bidder 1 9,360,000 YEM 30 November 2018 - 09:39:25
Bidder 2 9,350,000 YEM 30 November 2018 - 09:39:25
Bidder 1 9,260,000 YEM 30 November 2018 - 09:39:17
Bidder 2 9,250,000 YEM 30 November 2018 - 09:39:17
Bidder 1 9,160,000 YEM 30 November 2018 - 09:39:04
Bidder 2 9,150,000 YEM 30 November 2018 - 09:39:04
Bidder 1 9,110,000 YEM 29 November 2018 - 10:42:17
Bidder 2 9,100,000 YEM 29 November 2018 - 10:42:17
Bidder 1 9,010,000 YEM 29 November 2018 - 04:17:18
Bidder 3 9,000,000 YEM 29 November 2018 - 04:17:18
Bidder 1 8,510,000 YEM 29 November 2018 - 04:16:45
Bidder 3 8,500,000 YEM 29 November 2018 - 04:16:45
Bidder 1 8,010,000 YEM 29 November 2018 - 04:16:37
Bidder 3 8,000,000 YEM 29 November 2018 - 04:16:37
Bidder 1 7,510,000 YEM 29 November 2018 - 04:16:26
Bidder 3 7,500,000 YEM 29 November 2018 - 04:16:26
Bidder 1 6,910,000 YEM 29 November 2018 - 04:08:50
Bidder 3 6,900,000 YEM 29 November 2018 - 04:08:50
Bidder 1 6,010,000 YEM 29 November 2018 - 04:08:38
Bidder 3 6,000,000 YEM 29 November 2018 - 04:08:38
Bidder 1 5,010,000 YEM 29 November 2018 - 04:08:31
Bidder 3 5,000,000 YEM 29 November 2018 - 04:08:31
Bidder 1 4,510,000 YEM 29 November 2018 - 04:08:06
Bidder 3 4,500,000 YEM 29 November 2018 - 04:08:06
Bidder 1 3,810,000 YEM 29 November 2018 - 03:37:42
Bidder 2 3,800,000 YEM 29 November 2018 - 03:37:42
Bidder 1 3,760,000 YEM 29 November 2018 - 03:37:26
Bidder 2 3,750,000 YEM 29 November 2018 - 03:37:26
Bidder 1 3,620,000 YEM 29 November 2018 - 03:37:04
Bidder 2 3,610,000 YEM 29 November 2018 - 03:37:04
Bidder 1 3,600,000 YEM 29 November 2018 - 03:36:52
Bidder 2 3,590,000 YEM 29 November 2018 - 03:36:52
Bidder 1 3,580,000 YEM 29 November 2018 - 03:36:42
Bidder 2 3,570,000 YEM 29 November 2018 - 03:36:42
Bidder 1 3,560,000 YEM 29 November 2018 - 03:36:33
Bidder 2 3,550,000 YEM 29 November 2018 - 03:36:33
Bidder 1 3,510,001 YEM 29 November 2018 - 03:36:10
Bidder 2 3,500,001 YEM 29 November 2018 - 03:36:10
Bidder 1 3,460,000 YEM 29 November 2018 - 03:35:54
Bidder 2 3,450,000 YEM 29 November 2018 - 03:35:54
Bidder 1 3,410,000 YEM 29 November 2018 - 03:35:40
Bidder 2 3,400,000 YEM 29 November 2018 - 03:35:40
Bidder 1 3,360,000 YEM 29 November 2018 - 03:35:30
Bidder 2 3,350,000 YEM 29 November 2018 - 03:35:30
Bidder 1 3,340,000 YEM 29 November 2018 - 03:35:23
Bidder 2 3,330,000 YEM 29 November 2018 - 03:35:23
Bidder 1 3,320,000 YEM 29 November 2018 - 03:35:15
Bidder 2 3,310,000 YEM 29 November 2018 - 03:35:15
Bidder 1 3,300,000 YEM 29 November 2018 - 03:35:03
Bidder 2 3,290,000 YEM 29 November 2018 - 03:35:03
Bidder 1 3,280,000 YEM 29 November 2018 - 03:34:46
Bidder 2 3,270,000 YEM 29 November 2018 - 03:34:46
Bidder 1 3,260,000 YEM 29 November 2018 - 03:34:38
Bidder 2 3,250,000 YEM 29 November 2018 - 03:34:38
Bidder 1 3,240,000 YEM 29 November 2018 - 03:34:27
Bidder 2 3,230,000 YEM 29 November 2018 - 03:34:27
Bidder 1 3,220,000 YEM 29 November 2018 - 00:44:18
Bidder 2 3,210,000 YEM 28 November 2018 - 08:13:39
Bidder 4 3,200,000 YEM 28 November 2018 - 08:13:27
Bidder 2 3,190,000 YEM 28 November 2018 - 08:13:27
Bidder 4 3,180,000 YEM 28 November 2018 - 08:13:18
Bidder 2 3,170,000 YEM 28 November 2018 - 08:13:18
Bidder 4 3,160,000 YEM 28 November 2018 - 08:13:11
Bidder 2 3,150,000 YEM 28 November 2018 - 08:13:11
Bidder 4 3,121,111 YEM 25 November 2018 - 10:45:24
Bidder 2 3,111,111 YEM 25 November 2018 - 10:45:24
Bidder 2 3,110,000 YEM 25 November 2018 - 10:41:14
Bidder 4 3,100,000 YEM 25 November 2018 - 10:41:14
Bidder 2 3,010,000 YEM 25 November 2018 - 10:41:00
Bidder 4 3,000,000 YEM 25 November 2018 - 10:41:00
Bidder 2 2,910,000 YEM 16 November 2018 - 01:00:48
Bidder 4 2,900,000 YEM 16 November 2018 - 01:00:48
Bidder 4 2,898,888 YEM 16 November 2018 - 01:00:02
Bidder 2 2,888,888 YEM 16 November 2018 - 01:00:02
Bidder 4 2,760,000 YEM 15 November 2018 - 11:56:04
Bidder 2 2,750,000 YEM 15 November 2018 - 11:56:04
Bidder 2 2,710,000 YEM 15 November 2018 - 11:55:46
Bidder 4 2,700,000 YEM 15 November 2018 - 11:55:46
Bidder 2 2,645,000 YEM 15 November 2018 - 11:54:23
Bidder 4 2,635,000 YEM 15 November 2018 - 11:54:23
Bidder 2 2,610,000 YEM 10 November 2018 - 05:05:09
Bidder 3 2,600,000 YEM 10 November 2018 - 05:04:12
Bidder 2 2,600,000 YEM 10 November 2018 - 05:04:12
Bidder 3 2,511,000 YEM 09 November 2018 - 12:51:06
Bidder 4 2,501,000 YEM 09 November 2018 - 12:50:55
Bidder 3 2,500,000 YEM 09 November 2018 - 12:50:55
Bidder 4 2,130,000 YEM 09 November 2018 - 03:37:12
Bidder 5 2,120,000 YEM 09 November 2018 - 03:37:12
Bidder 4 2,110,000 YEM 08 November 2018 - 12:33:38
Bidder 2 2,100,000 YEM 08 November 2018 - 12:33:38
Bidder 2 2,060,000 YEM 08 November 2018 - 04:17:30
Bidder 3 2,050,000 YEM 08 November 2018 - 04:16:35
Bidder 2 2,050,000 YEM 08 November 2018 - 04:16:35
Bidder 3 2,040,000 YEM 08 November 2018 - 04:16:20
Bidder 2 2,030,000 YEM 08 November 2018 - 04:16:20
Bidder 3 2,020,000 YEM 04 November 2018 - 19:41:25
Bidder 2 2,010,000 YEM 04 November 2018 - 01:34:27
Bidder 3 2,000,000 YEM 04 November 2018 - 01:34:02
Bidder 2 1,990,000 YEM 04 November 2018 - 01:34:02
Bidder 3 1,980,000 YEM 04 November 2018 - 01:33:55
Bidder 2 1,970,000 YEM 04 November 2018 - 01:33:55
Bidder 3 1,960,000 YEM 04 November 2018 - 01:33:48
Bidder 2 1,950,000 YEM 04 November 2018 - 01:33:48
Bidder 3 1,940,000 YEM 04 November 2018 - 01:33:42
Bidder 2 1,930,000 YEM 04 November 2018 - 01:33:42
Bidder 3 1,920,000 YEM 04 November 2018 - 01:33:36
Bidder 2 1,910,000 YEM 04 November 2018 - 01:33:36
Bidder 3 1,900,000 YEM 04 November 2018 - 01:33:27
Bidder 2 1,890,000 YEM 04 November 2018 - 01:33:27
Bidder 3 1,880,000 YEM 04 November 2018 - 01:33:21
Bidder 2 1,870,000 YEM 04 November 2018 - 01:33:21
Bidder 3 1,860,000 YEM 04 November 2018 - 01:33:15
Bidder 2 1,850,000 YEM 04 November 2018 - 01:33:15
Bidder 3 1,840,000 YEM 04 November 2018 - 01:33:07
Bidder 2 1,830,000 YEM 04 November 2018 - 01:33:07
Bidder 3 1,820,000 YEM 04 November 2018 - 01:33:01
Bidder 2 1,810,000 YEM 04 November 2018 - 01:33:01
Bidder 3 1,800,000 YEM 04 November 2018 - 01:32:52
Bidder 2 1,790,000 YEM 04 November 2018 - 01:32:52
Bidder 3 1,780,000 YEM 04 November 2018 - 01:32:45
Bidder 2 1,770,000 YEM 04 November 2018 - 01:32:45
Bidder 3 1,760,000 YEM 04 November 2018 - 01:32:35
Bidder 2 1,750,000 YEM 04 November 2018 - 01:32:35
Bidder 3 1,710,000 YEM 03 November 2018 - 11:31:59
Bidder 2 1,700,000 YEM 03 November 2018 - 11:31:59
Bidder 2 1,690,000 YEM 03 November 2018 - 03:30:31
Bidder 6 1,680,000 YEM 02 November 2018 - 12:00:27
Bidder 2 1,670,000 YEM 01 November 2018 - 17:31:44
Bidder 7 1,666,000 YEM 01 November 2018 - 17:31:44
Bidder 7 1,660,000 YEM 01 November 2018 - 17:31:37
Bidder 2 1,650,000 YEM 01 November 2018 - 17:31:37
Bidder 7 1,640,000 YEM 01 November 2018 - 16:49:24
Bidder 6 1,630,000 YEM 01 November 2018 - 14:47:37
Bidder 8 1,625,000 YEM 01 November 2018 - 14:47:37
Bidder 8 1,620,000 YEM 01 November 2018 - 12:10:33
Bidder 2 1,610,000 YEM 01 November 2018 - 05:16:56
Bidder 9 1,600,000 YEM 01 November 2018 - 03:50:58
Bidder 7 1,595,000 YEM 01 November 2018 - 03:50:58
Bidder 7 1,525,500 YEM 01 November 2018 - 02:22:20
Bidder 6 1,515,500 YEM 01 November 2018 - 02:22:20
Bidder 6 1,515,000 YEM 31 October 2018 - 14:47:05
Bidder 2 1,505,000 YEM 31 October 2018 - 09:02:27
Bidder 7 1,500,000 YEM 31 October 2018 - 09:02:27
Bidder 7 1,495,000 YEM 31 October 2018 - 09:02:17
Bidder 2 1,485,000 YEM 31 October 2018 - 09:02:17
Bidder 7 1,475,000 YEM 31 October 2018 - 03:17:40
Bidder 2 1,465,000 YEM 31 October 2018 - 03:17:40
Bidder 2 1,460,000 YEM 30 October 2018 - 09:48:16
Bidder 4 1,450,000 YEM 30 October 2018 - 09:48:00
Bidder 2 1,445,000 YEM 30 October 2018 - 09:48:00
Bidder 4 1,435,000 YEM 30 October 2018 - 09:47:54
Bidder 2 1,425,000 YEM 30 October 2018 - 09:47:54
Bidder 4 1,415,000 YEM 30 October 2018 - 09:47:45
Bidder 2 1,405,000 YEM 30 October 2018 - 09:47:45
Bidder 4 1,395,000 YEM 30 October 2018 - 09:47:32
Bidder 2 1,385,000 YEM 30 October 2018 - 09:47:32
Bidder 4 1,375,000 YEM 30 October 2018 - 09:47:28
Bidder 2 1,365,000 YEM 30 October 2018 - 09:47:28
Bidder 4 1,355,000 YEM 30 October 2018 - 09:47:23
Bidder 2 1,345,000 YEM 30 October 2018 - 09:47:23
Bidder 4 1,335,000 YEM 30 October 2018 - 09:47:20
Bidder 2 1,325,000 YEM 30 October 2018 - 09:47:20
Bidder 4 1,315,000 YEM 30 October 2018 - 09:47:16
Bidder 2 1,305,000 YEM 30 October 2018 - 09:47:16
Bidder 4 1,295,000 YEM 30 October 2018 - 09:47:10
Bidder 2 1,285,000 YEM 30 October 2018 - 09:47:10
Bidder 4 1,275,000 YEM 30 October 2018 - 09:47:06
Bidder 2 1,265,000 YEM 30 October 2018 - 09:47:06
Bidder 4 1,255,000 YEM 30 October 2018 - 09:47:02
Bidder 2 1,245,000 YEM 30 October 2018 - 09:47:02
Bidder 4 1,235,000 YEM 30 October 2018 - 09:46:55
Bidder 2 1,225,000 YEM 30 October 2018 - 09:46:55
Bidder 4 1,215,000 YEM 30 October 2018 - 06:27:51
Bidder 2 1,205,000 YEM 30 October 2018 - 06:08:10
Bidder 10 1,200,000 YEM 30 October 2018 - 06:08:10
Bidder 10 1,195,000 YEM 30 October 2018 - 06:08:04
Bidder 2 1,185,000 YEM 30 October 2018 - 06:08:04
Bidder 10 1,175,000 YEM 30 October 2018 - 06:07:59
Bidder 2 1,165,000 YEM 30 October 2018 - 06:07:59
Bidder 10 1,155,000 YEM 30 October 2018 - 06:07:35
Bidder 2 1,145,000 YEM 30 October 2018 - 06:07:35
Bidder 10 1,135,000 YEM 30 October 2018 - 06:07:31
Bidder 2 1,125,000 YEM 30 October 2018 - 06:07:31
Bidder 10 1,115,000 YEM 30 October 2018 - 06:07:25
Bidder 2 1,105,000 YEM 30 October 2018 - 06:07:25
Bidder 10 1,095,000 YEM 30 October 2018 - 06:07:17
Bidder 2 1,085,000 YEM 30 October 2018 - 06:07:17
Bidder 10 1,075,000 YEM 30 October 2018 - 06:07:14
Bidder 2 1,065,000 YEM 30 October 2018 - 06:07:14
Bidder 10 1,055,000 YEM 30 October 2018 - 06:07:08
Bidder 2 1,045,000 YEM 30 October 2018 - 06:07:08
Bidder 10 1,035,000 YEM 30 October 2018 - 06:07:01
Bidder 2 1,025,000 YEM 30 October 2018 - 06:07:01
Bidder 10 1,015,000 YEM 30 October 2018 - 05:19:55
Bidder 2 1,005,000 YEM 30 October 2018 - 01:25:02
Bidder 11 1,000,000 YEM 30 October 2018 - 01:24:42
Bidder 12 1,000,000 YEM 30 October 2018 - 01:24:42
Bidder 11 905,000 YEM 30 October 2018 - 01:24:03
Bidder 12 900,000 YEM 30 October 2018 - 01:24:03
Bidder 11 805,000 YEM 30 October 2018 - 01:23:56
Bidder 12 800,000 YEM 30 October 2018 - 01:23:56
Bidder 11 705,000 YEM 30 October 2018 - 01:23:46
Bidder 12 700,000 YEM 30 October 2018 - 01:23:46
Bidder 11 585,000 YEM 30 October 2018 - 00:57:19
Bidder 13 580,000 YEM 30 October 2018 - 00:57:19
Bidder 11 545,000 YEM 30 October 2018 - 00:56:52
Bidder 13 540,000 YEM 30 October 2018 - 00:56:52
Bidder 11 525,000 YEM 30 October 2018 - 00:56:32
Bidder 13 520,000 YEM 30 October 2018 - 00:56:32
Bidder 11 512,000 YEM 30 October 2018 - 00:56:14
Bidder 13 507,000 YEM 30 October 2018 - 00:56:14
Bidder 11 501,000 YEM 30 October 2018 - 00:01:43
Bidder 14 500,000 YEM 30 October 2018 - 00:01:43
Bidder 11 481,000 YEM 30 October 2018 - 00:01:30
Bidder 14 480,000 YEM 30 October 2018 - 00:01:30
Bidder 11 471,000 YEM 30 October 2018 - 00:01:16
Bidder 14 470,000 YEM 30 October 2018 - 00:01:16
Bidder 11 451,000 YEM 30 October 2018 - 00:01:05
Bidder 14 450,000 YEM 30 October 2018 - 00:01:05
Bidder 11 437,000 YEM 30 October 2018 - 00:00:49
Bidder 14 436,000 YEM 30 October 2018 - 00:00:49
Bidder 11 431,000 YEM 30 October 2018 - 00:00:31
Bidder 14 430,000 YEM 30 October 2018 - 00:00:31
Bidder 11 426,000 YEM 30 October 2018 - 00:00:10
Bidder 14 425,000 YEM 30 October 2018 - 00:00:10
Bidder 11 421,000 YEM 29 October 2018 - 23:59:55
Bidder 14 420,000 YEM 29 October 2018 - 23:59:55
Bidder 11 416,000 YEM 29 October 2018 - 23:59:45
Bidder 14 415,000 YEM 29 October 2018 - 23:59:45
Bidder 11 407,000 YEM 29 October 2018 - 23:59:36
Bidder 14 406,000 YEM 29 October 2018 - 23:59:36
Bidder 11 404,000 YEM 29 October 2018 - 23:59:06
Bidder 14 403,000 YEM 29 October 2018 - 23:59:06
Bidder 11 401,000 YEM 29 October 2018 - 19:58:58
Bidder 15 400,000 YEM 29 October 2018 - 19:58:58
Bidder 11 351,000 YEM 29 October 2018 - 19:58:42
Bidder 15 350,000 YEM 29 October 2018 - 19:58:42
Bidder 11 301,000 YEM 29 October 2018 - 19:58:22
Bidder 15 300,000 YEM 29 October 2018 - 19:58:22
Bidder 11 203,000 YEM 29 October 2018 - 17:22:59
Bidder 16 202,000 YEM 29 October 2018 - 17:22:59
Bidder 11 201,000 YEM 29 October 2018 - 17:14:04
Bidder 17 200,000 YEM 29 October 2018 - 17:14:04
Bidder 11 196,000 YEM 29 October 2018 - 17:13:55
Bidder 17 195,000 YEM 29 October 2018 - 17:13:55
Bidder 11 176,000 YEM 29 October 2018 - 17:13:45
Bidder 17 175,000 YEM 29 October 2018 - 17:13:45
Bidder 11 151,000 YEM 29 October 2018 - 17:13:32
Bidder 17 150,000 YEM 29 October 2018 - 17:13:32
Bidder 11 146,000 YEM 29 October 2018 - 17:13:19
Bidder 17 145,000 YEM 29 October 2018 - 17:13:19
Bidder 11 132,500 YEM 29 October 2018 - 17:10:31
Bidder 2 131,500 YEM 29 October 2018 - 17:10:31
Bidder 11 128,500 YEM 29 October 2018 - 17:10:03
Bidder 2 127,500 YEM 29 October 2018 - 17:10:03
Bidder 11 124,456 YEM 29 October 2018 - 17:05:55
Bidder 6 123,456 YEM 29 October 2018 - 17:05:55
Bidder 11 111,111 YEM 29 October 2018 - 16:57:33
Bidder 2 110,111 YEM 29 October 2018 - 16:57:33
Bidder 11 103,000 YEM 29 October 2018 - 16:50:53
Bidder 2 102,000 YEM 29 October 2018 - 16:50:53
Bidder 11 100,500 YEM 29 October 2018 - 16:40:21
Bidder 17 100,000 YEM 29 October 2018 - 16:39:27
Bidder 11 100,000 YEM 29 October 2018 - 16:39:27
Bidder 17 50,250 YEM 29 October 2018 - 16:39:20
Bidder 11 50,000 YEM 29 October 2018 - 16:39:20
Bidder 17 46,250 YEM 29 October 2018 - 16:39:09
Bidder 11 46,000 YEM 29 October 2018 - 16:39:09
Bidder 17 45,250 YEM 29 October 2018 - 16:38:48
Bidder 18 45,000 YEM 29 October 2018 - 16:38:48
Bidder 17 40,250 YEM 29 October 2018 - 16:38:28
Bidder 18 40,000 YEM 29 October 2018 - 16:38:28
Bidder 17 30,250 YEM 29 October 2018 - 16:38:16
Bidder 18 30,000 YEM 29 October 2018 - 16:38:16
Bidder 17 23,100 YEM 29 October 2018 - 16:38:08
Bidder 18 23,000 YEM 29 October 2018 - 16:38:08
Bidder 17 20,100 YEM 29 October 2018 - 16:38:00
Bidder 18 20,000 YEM 29 October 2018 - 16:38:00
Bidder 17 15,100 YEM 29 October 2018 - 16:20:39
Bidder 19 15,000 YEM 29 October 2018 - 16:20:39
Bidder 19 10,050 YEM 29 October 2018 - 16:19:35
Bidder 17 10,000 YEM 29 October 2018 - 16:19:35
Bidder 19 8,050 YEM 29 October 2018 - 16:08:19
Bidder 20 8,000 YEM 29 October 2018 - 16:08:19
Bidder 19 7,650 YEM 29 October 2018 - 15:54:42
Bidder 2 7,600 YEM 29 October 2018 - 15:54:42
Bidder 19 7,550 YEM 29 October 2018 - 15:54:36
Bidder 2 7,500 YEM 29 October 2018 - 15:54:36
Bidder 19 7,450 YEM 29 October 2018 - 15:54:30
Bidder 2 7,400 YEM 29 October 2018 - 15:54:30
Bidder 19 7,350 YEM 29 October 2018 - 15:54:24
Bidder 2 7,300 YEM 29 October 2018 - 15:54:24
Bidder 19 7,250 YEM 29 October 2018 - 15:54:19
Bidder 2 7,200 YEM 29 October 2018 - 15:54:19
Bidder 19 7,150 YEM 29 October 2018 - 15:54:12
Bidder 2 7,100 YEM 29 October 2018 - 15:54:12
Bidder 19 7,050 YEM 29 October 2018 - 15:54:03
Bidder 2 7,000 YEM 29 October 2018 - 15:54:03
Bidder 19 6,950 YEM 29 October 2018 - 15:53:58
Bidder 2 6,900 YEM 29 October 2018 - 15:53:58
Bidder 19 6,850 YEM 29 October 2018 - 15:53:49
Bidder 2 6,800 YEM 29 October 2018 - 15:53:49
Bidder 19 6,750 YEM 29 October 2018 - 15:53:41
Bidder 2 6,700 YEM 29 October 2018 - 15:53:41
Bidder 19 6,650 YEM 29 October 2018 - 15:53:35
Bidder 2 6,600 YEM 29 October 2018 - 15:53:35
Bidder 19 6,550 YEM 29 October 2018 - 15:53:24
Bidder 2 6,500 YEM 29 October 2018 - 15:53:24
Bidder 19 6,350 YEM 29 October 2018 - 15:53:15
Bidder 2 6,300 YEM 29 October 2018 - 15:53:15
Bidder 19 6,250 YEM 29 October 2018 - 15:53:03
Bidder 2 6,200 YEM 29 October 2018 - 15:53:03
Bidder 19 6,051 YEM 29 October 2018 - 15:52:34
Bidder 2 6,001 YEM 29 October 2018 - 15:52:34
Bidder 19 5,605 YEM 29 October 2018 - 15:43:39
Bidder 21 5,555 YEM 29 October 2018 - 15:43:39
Bidder 21 5,050 YEM 29 October 2018 - 15:43:25
Bidder 19 5,000 YEM 29 October 2018 - 15:43:25
Bidder 21 2,050 YEM 29 October 2018 - 15:33:58
Bidder 22 2,000 YEM 29 October 2018 - 15:33:58
Bidder 22 1,938 YEM 29 October 2018 - 15:33:46
Bidder 21 1,888 YEM 29 October 2018 - 15:33:46
Bidder 22 1,161 YEM 29 October 2018 - 15:33:19
Bidder 21 1,111 YEM 29 October 2018 - 15:33:19
Bidder 21 1,005 YEM 29 October 2018 - 15:33:10
Bidder 22 1,000 YEM 29 October 2018 - 15:33:10
Bidder 21 502 YEM 29 October 2018 - 15:30:06
Bidder 23 500 YEM 29 October 2018 - 15:30:06
Bidder 23 302 YEM 29 October 2018 - 15:17:05
Bidder 2 300 YEM 29 October 2018 - 15:17:05
Bidder 23 298 YEM 29 October 2018 - 15:16:57
Bidder 2 296 YEM 29 October 2018 - 15:16:57
Bidder 23 294 YEM 29 October 2018 - 15:16:46
Bidder 2 292 YEM 29 October 2018 - 15:16:46
Bidder 23 290 YEM 29 October 2018 - 15:16:01
Bidder 2 288 YEM 29 October 2018 - 15:16:01
Bidder 23 279 YEM 29 October 2018 - 15:07:11
Bidder 2 277 YEM 29 October 2018 - 15:07:11
Bidder 23 224 YEM 29 October 2018 - 15:06:55
Bidder 2 222 YEM 29 October 2018 - 15:06:55
Bidder 23 113 YEM 29 October 2018 - 15:06:44
Bidder 2 111 YEM 29 October 2018 - 15:06:44
Bidder 23 105 YEM 29 October 2018 - 15:06:33
Bidder 2 103 YEM 29 October 2018 - 15:06:33
Bidder 23 101 YEM 29 October 2018 - 15:04:51
Bidder 4 100 YEM 29 October 2018 - 15:04:51
Bidder 4 6 YEM 29 October 2018 - 15:04:38
Bidder 23 5 YEM 29 October 2018 - 15:04:38
Bidder 4 1 YEM 29 October 2018 - 15:02:21